Location: Waco, TX
(31.5480°N, 97.1670°W)
Time: 06:37:21
(UTC-05:00)

ISS - Pass Details

Date: 01 October 2022
Orbit: 414 x 417 km, 51.6° (Epoch: 01 October)

Event Time Altitude Azimuth Distance (km) Brightness Sun altitude
Rises 21:17:55 0° 323° (NW) 2,356 0.8 -27.2°
Reaches altitude 10° 21:20:08 10° 333° (NNW) 1,491 -0.5 -27.6°
Enters shadow 21:20:23 12° 334° (NNW) 1,394 -0.7 -27.7°
Maximum altitude 21:23:14 35° 41° (NE) 692 - -28.3°
Drops below altitude 10° 21:26:19 10° 109° (ESE) 1,484 - -28.9°
Sets 21:28:31 0° 118° (ESE) 2,344 - -29.4°
